Location: Blazny
(46.0612°N, 84.4033°W)
Time: 10:27:43
(UTC-04:00)

ARIANE 6 FM1 Upper Stage - Pass Details

Date: 19 September 2024
Orbit: 564 x 594 km, 62.0° (Epoch: 03 October)

Event Time Altitude Azimuth Distance (km) Brightness Sun altitude
Rises 06:29:32 0° 312° (NW) 2,838 5.9 -9.8°
Reaches altitude 10° 06:31:55 10° 304° (NW) 1,935 5.0 -9.4°
Maximum altitude 06:35:55 35° 238° (WSW) 965 3.4 -8.7°
Drops below altitude 10° 06:39:53 10° 172° (S) 1,925 5.4 -8.0°
Sets 06:42:16 0° 164° (SSE) 2,821 6.3 -7.6°
